Tracking 29892 objects as of 21-Nov-2024
HD Live streaming from Space Station
objects crossing your sky now

SL-12 R/B(2)

Track SL-12 R/B(2) now!


NORAD ID: 23516
Int'l Code: 1995-009F
Perigee: 19,061.5 km
Apogee: 19,179.7 km
Inclination: 64.4 °
Period: 675.1 minutes
Semi major axis: 25491 km
RCS: 1.9639 m2 (large)
Launch date: March 7, 1995
Source: Commonwealth of Independent States (former USSR) (CIS)
Launch site: TYURATAM MISSILE AND SPACE COMPLEX (TTMTR)

Note: This is a ROCKET BODY
Your satellite tracking list
Your tracking list is empty




NASA's NSSDC Master Catalog

Two Line Element Set (TLE):
1 23516U 95009F   24325.49941354 -.00000043  00000-0  00000-0 0  9993
2 23516  64.3693 320.6844 0023200 238.4036 214.7688  2.13307998231442
Source of the keplerian elements: AFSPC